Location: ?????
(44.4284°N, 135.2222°E)
Time: 04:20:31
(UTC+00:00)

USA 59 Rocket - Pass Details

Date: 19 May 2025
Orbit: 373 x 1695 km, 63.3° (Epoch: 19 June)

Event Time Altitude Azimuth Distance (km) Brightness Sun altitude
Exits shadow 13:20:48 12° 54° (NE) 1,333 1.9 -22.1°
Drops below altitude 10° 13:21:03 10° 52° (NE) 1,435 2.1 -22.1°
Sets 13:23:00 0° 44° (NE) 2,253 3.2 -22.3°
